owner,sensor,date,latitude,longitude,sea_surface_height_above_sea_level,qcFlag 
WAVCIS,ioos:station:WAVCIS:CSI16:1,2011-12-01T00:00:00Z,29.4012,-89.0355,8.81,11111222 
WAVCIS,ioos:station:WAVCIS:CSI16:1,2011-12-01T01:00:00Z,29.4012,-89.0355,8.84,11111222 
WAVCIS,ioos:station:WAVCIS:CSI16:1,2011-12-01T02:00:00Z,29.4012,-89.0355,8.864,11111222 
WAVCIS,ioos:station:WAVCIS:CSI16:1,2011-12-01T03:00:00Z,29.4012,-89.0355,8.881,11111222 
WAVCIS,ioos:station:WAVCIS:CSI16:1,2011-12-01T04:00:00Z,29.4012,-89.0355,8.893,11111222 
WAVCIS,ioos:station:WAVCIS:CSI16:1,2011-12-01T05:00:00Z,29.4012,-89.0355,8.897,11111222 
WAVCIS,ioos:station:WAVCIS:CSI16:1,2011-12-01T06:00:00Z,29.4012,-89.0355,8.889,11111222 
WAVCIS,ioos:station:WAVCIS:CSI16:1,2011-12-01T07:00:00Z,29.4012,-89.0355,8.885,11111222 
WAVCIS,ioos:station:WAVCIS:CSI16:1,2011-12-01T08:00:00Z,29.4012,-89.0355,8.863,11111222 
WAVCIS,ioos:station:WAVCIS:CSI16:1,2011-12-01T09:00:00Z,29.4012,-89.0355,8.841,11111222 
WAVCIS,ioos:station:WAVCIS:CSI16:1,2011-12-01T10:00:00Z,29.4012,-89.0355,8.815,11111222 
WAVCIS,ioos:station:WAVCIS:CSI16:1,2011-12-01T11:00:00Z,29.4012,-89.0355,8.784,11111222 
WAVCIS,ioos:station:WAVCIS:CSI16:1,2011-12-01T12:00:00Z,29.4012,-89.0355,8.748,11111222 
WAVCIS,ioos:station:WAVCIS:CSI16:1,2011-12-01T13:00:00Z,29.4012,-89.0355,8.723,11111222 
WAVCIS,ioos:station:WAVCIS:CSI16:1,2011-12-01T14:00:00Z,29.4012,-89.0355,8.702,11111222 
WAVCIS,ioos:station:WAVCIS:CSI16:1,2011-12-01T15:00:00Z,29.4012,-89.0355,8.688,11111222 
WAVCIS,ioos:station:WAVCIS:CSI16:1,2011-12-01T16:00:00Z,29.4012,-89.0355,8.678,11111222 
WAVCIS,ioos:station:WAVCIS:CSI16:1,2011-12-01T17:00:00Z,29.4012,-89.0355,8.684,11111222 
WAVCIS,ioos:station:WAVCIS:CSI16:1,2011-12-01T18:00:00Z,29.4012,-89.0355,8.709,11111222 
WAVCIS,ioos:station:WAVCIS:CSI16:1,2011-12-01T19:00:00Z,29.4012,-89.0355,8.722,11111222 
WAVCIS,ioos:station:WAVCIS:CSI16:1,2011-12-01T20:00:00Z,29.4012,-89.0355,8.75,11111222 
WAVCIS,ioos:station:WAVCIS:CSI16:1,2011-12-01T21:00:00Z,29.4012,-89.0355,8.763,11111222 
WAVCIS,ioos:station:WAVCIS:CSI16:1,2011-12-01T22:00:00Z,29.4012,-89.0355,8.788,11111222 
WAVCIS,ioos:station:WAVCIS:CSI16:1,2011-12-01T23:00:00Z,29.4012,-89.0355,8.802,11111222 
WAVCIS,ioos:station:WAVCIS:CSI16:1,2011-12-02T00:00:00Z,29.4012,-89.0355,8.825,11111222 
WAVCIS,ioos:station:WAVCIS:CSI16:1,2011-12-02T01:00:00Z,29.4012,-89.0355,8.852,11111222 
WAVCIS,ioos:station:WAVCIS:CSI16:1,2011-12-02T02:00:00Z,29.4012,-89.0355,8.864,11111222 
WAVCIS,ioos:station:WAVCIS:CSI16:1,2011-12-02T03:00:00Z,29.4012,-89.0355,8.871,11111222 
WAVCIS,ioos:station:WAVCIS:CSI16:1,2011-12-02T04:00:00Z,29.4012,-89.0355,8.887,11111222 
WAVCIS,ioos:station:WAVCIS:CSI16:1,2011-12-02T05:00:00Z,29.4012,-89.0355,8.891,11111222 
WAVCIS,ioos:station:WAVCIS:CSI16:1,2011-12-02T06:00:00Z,29.4012,-89.0355,8.876,11111222 
WAVCIS,ioos:station:WAVCIS:CSI16:1,2011-12-02T07:00:00Z,29.4012,-89.0355,8.884,11111222 
WAVCIS,ioos:station:WAVCIS:CSI16:1,2011-12-02T08:00:00Z,29.4012,-89.0355,8.873,11111222 
WAVCIS,ioos:station:WAVCIS:CSI16:1,2011-12-02T09:00:00Z,29.4012,-89.0355,8.856,11111222 
WAVCIS,ioos:station:WAVCIS:CSI16:1,2011-12-02T10:00:00Z,29.4012,-89.0355,8.838,11111222 
WAVCIS,ioos:station:WAVCIS:CSI16:1,2011-12-02T11:00:00Z,29.4012,-89.0355,8.824,11111222 
WAVCIS,ioos:station:WAVCIS:CSI16:1,2011-12-02T12:00:00Z,29.4012,-89.0355,8.796,11111222 
WAVCIS,ioos:station:WAVCIS:CSI16:1,2011-12-02T13:00:00Z,29.4012,-89.0355,8.787,11111222 
WAVCIS,ioos:station:WAVCIS:CSI16:1,2011-12-02T14:00:00Z,29.4012,-89.0355,8.783,11111222 
WAVCIS,ioos:station:WAVCIS:CSI16:1,2011-12-02T15:00:00Z,29.4012,-89.0355,8.776,11111222 
WAVCIS,ioos:station:WAVCIS:CSI16:1,2011-12-02T16:00:00Z,29.4012,-89.0355,8.79,11111222 
WAVCIS,ioos:station:WAVCIS:CSI16:1,2011-12-02T17:00:00Z,29.4012,-89.0355,8.794,11111222 
WAVCIS,ioos:station:WAVCIS:CSI16:1,2011-12-02T18:00:00Z,29.4012,-89.0355,8.799,11111222 
WAVCIS,ioos:station:WAVCIS:CSI16:1,2011-12-02T19:00:00Z,29.4012,-89.0355,8.821,11111222 
WAVCIS,ioos:station:WAVCIS:CSI16:1,2011-12-02T20:00:00Z,29.4012,-89.0355,8.82,11111222 
WAVCIS,ioos:station:WAVCIS:CSI16:1,2011-12-02T21:00:00Z,29.4012,-89.0355,8.826,11111222 
WAVCIS,ioos:station:WAVCIS:CSI16:1,2011-12-02T22:00:00Z,29.4012,-89.0355,8.86,11111222 
WAVCIS,ioos:station:WAVCIS:CSI16:1,2011-12-02T23:00:00Z,29.4012,-89.0355,8.874,11111222 
WAVCIS,ioos:station:WAVCIS:CSI16:1,2011-12-03T00:00:00Z,29.4012,-89.0355,8.895,11111222 
WAVCIS,ioos:station:WAVCIS:CSI16:1,2011-12-03T01:00:00Z,29.4012,-89.0355,8.914,11111222 
WAVCIS,ioos:station:WAVCIS:CSI16:1,2011-12-03T02:00:00Z,29.4012,-89.0355,8.912,11111222 
WAVCIS,ioos:station:WAVCIS:CSI16:1,2011-12-03T03:00:00Z,29.4012,-89.0355,8.902,11111222 
WAVCIS,ioos:station:WAVCIS:CSI16:1,2011-12-03T04:00:00Z,29.4012,-89.0355,8.892,11111222 
WAVCIS,ioos:station:WAVCIS:CSI16:1,2011-12-03T05:00:00Z,29.4012,-89.0355,8.869,11111222 
WAVCIS,ioos:station:WAVCIS:CSI16:1,2011-12-03T06:00:00Z,29.4012,-89.0355,8.834,11111222 
WAVCIS,ioos:station:WAVCIS:CSI16:1,2011-12-03T07:00:00Z,29.4012,-89.0355,8.815,11111222 
WAVCIS,ioos:station:WAVCIS:CSI16:1,2011-12-03T08:00:00Z,29.4012,-89.0355,8.804,11111222 
WAVCIS,ioos:station:WAVCIS:CSI16:1,2011-12-03T09:00:00Z,29.4012,-89.0355,8.774,11111222 
WAVCIS,ioos:station:WAVCIS:CSI16:1,2011-12-03T10:00:00Z,29.4012,-89.0355,8.766,11111222 
WAVCIS,ioos:station:WAVCIS:CSI16:1,2011-12-03T11:00:00Z,29.4012,-89.0355,8.773,11111222 
WAVCIS,ioos:station:WAVCIS:CSI16:1,2011-12-03T12:00:00Z,29.4012,-89.0355,8.771,11111222 
WAVCIS,ioos:station:WAVCIS:CSI16:1,2011-12-03T13:00:00Z,29.4012,-89.0355,8.779,11111222 
WAVCIS,ioos:station:WAVCIS:CSI16:1,2011-12-03T14:00:00Z,29.4012,-89.0355,8.799,11111222 
WAVCIS,ioos:station:WAVCIS:CSI16:1,2011-12-03T15:00:00Z,29.4012,-89.0355,8.814,11111222 
WAVCIS,ioos:station:WAVCIS:CSI16:1,2011-12-03T16:00:00Z,29.4012,-89.0355,8.845,11111222 
WAVCIS,ioos:station:WAVCIS:CSI16:1,2011-12-03T17:00:00Z,29.4012,-89.0355,8.843,11111222 
WAVCIS,ioos:station:WAVCIS:CSI16:1,2011-12-03T18:00:00Z,29.4012,-89.0355,8.864,11111222 
WAVCIS,ioos:station:WAVCIS:CSI16:1,2011-12-03T19:00:00Z,29.4012,-89.0355,8.905,11111222 
WAVCIS,ioos:station:WAVCIS:CSI16:1,2011-12-03T20:00:00Z,29.4012,-89.0355,8.926,11111222 
WAVCIS,ioos:station:WAVCIS:CSI16:1,2011-12-03T21:00:00Z,29.4012,-89.0355,8.943,11111222 
WAVCIS,ioos:station:WAVCIS:CSI16:1,2011-12-03T22:00:00Z,29.4012,-89.0355,8.967,11111222 
WAVCIS,ioos:station:WAVCIS:CSI16:1,2011-12-03T23:00:00Z,29.4012,-89.0355,8.984,11111222 
WAVCIS,ioos:station:WAVCIS:CSI16:1,2011-12-04T00:00:00Z,29.4012,-89.0355,8.986,11111222 
WAVCIS,ioos:station:WAVCIS:CSI16:1,2011-12-04T01:00:00Z,29.4012,-89.0355,8.982,11111222 
WAVCIS,ioos:station:WAVCIS:CSI16:1,2011-12-04T02:00:00Z,29.4012,-89.0355,8.968,11111222 
WAVCIS,ioos:station:WAVCIS:CSI16:1,2011-12-04T03:00:00Z,29.4012,-89.0355,8.975,11111222 
WAVCIS,ioos:station:WAVCIS:CSI16:1,2011-12-04T04:00:00Z,29.4012,-89.0355,8.957,11111222 
WAVCIS,ioos:station:WAVCIS:CSI16:1,2011-12-04T05:00:00Z,29.4012,-89.0355,8.918,11111222 
WAVCIS,ioos:station:WAVCIS:CSI16:1,2011-12-04T06:00:00Z,29.4012,-89.0355,8.876,11111222 
WAVCIS,ioos:station:WAVCIS:CSI16:1,2011-12-04T07:00:00Z,29.4012,-89.0355,8.857,11111222 
WAVCIS,ioos:station:WAVCIS:CSI16:1,2011-12-04T08:00:00Z,29.4012,-89.0355,8.847,11111222 
WAVCIS,ioos:station:WAVCIS:CSI16:1,2011-12-04T09:00:00Z,29.4012,-89.0355,8.836,11111222 
WAVCIS,ioos:station:WAVCIS:CSI16:1,2011-12-04T10:00:00Z,29.4012,-89.0355,8.807,11111222 
WAVCIS,ioos:station:WAVCIS:CSI16:1,2011-12-04T11:00:00Z,29.4012,-89.0355,8.795,11111222 
WAVCIS,ioos:station:WAVCIS:CSI16:1,2011-12-04T12:00:00Z,29.4012,-89.0355,8.814,11111222 
WAVCIS,ioos:station:WAVCIS:CSI16:1,2011-12-04T13:00:00Z,29.4012,-89.0355,8.834,11111222 
WAVCIS,ioos:station:WAVCIS:CSI16:1,2011-12-04T14:00:00Z,29.4012,-89.0355,8.843,11111222 
WAVCIS,ioos:station:WAVCIS:CSI16:1,2011-12-04T15:00:00Z,29.4012,-89.0355,8.878,11111222 
WAVCIS,ioos:station:WAVCIS:CSI16:1,2011-12-04T16:00:00Z,29.4012,-89.0355,8.897,11111222 
WAVCIS,ioos:station:WAVCIS:CSI16:1,2011-12-04T17:00:00Z,29.4012,-89.0355,8.911,11111222 
WAVCIS,ioos:station:WAVCIS:CSI16:1,2011-12-04T18:00:00Z,29.4012,-89.0355,8.904,11111222 
WAVCIS,ioos:station:WAVCIS:CSI16:1,2011-12-04T19:00:00Z,29.4012,-89.0355,8.921,11111222 
WAVCIS,ioos:station:WAVCIS:CSI16:1,2011-12-04T20:00:00Z,29.4012,-89.0355,8.957,11111222 
WAVCIS,ioos:station:WAVCIS:CSI16:1,2011-12-04T21:00:00Z,29.4012,-89.0355,8.981,11111222 
WAVCIS,ioos:station:WAVCIS:CSI16:1,2011-12-04T22:00:00Z,29.4012,-89.0355,9.011,11111222 
WAVCIS,ioos:station:WAVCIS:CSI16:1,2011-12-04T23:00:00Z,29.4012,-89.0355,9.017,11111222 
WAVCIS,ioos:station:WAVCIS:CSI16:1,2011-12-05T00:00:00Z,29.4012,-89.0355,9.031,11111222 
WAVCIS,ioos:station:WAVCIS:CSI16:1,2011-12-05T01:00:00Z,29.4012,-89.0355,9.032,11111222 
WAVCIS,ioos:station:WAVCIS:CSI16:1,2011-12-05T02:00:00Z,29.4012,-89.0355,9.017,11111222 
WAVCIS,ioos:station:WAVCIS:CSI16:1,2011-12-05T03:00:00Z,29.4012,-89.0355,8.993,11111222 
WAVCIS,ioos:station:WAVCIS:CSI16:1,2011-12-05T04:00:00Z,29.4012,-89.0355,8.943,11111222 
WAVCIS,ioos:station:WAVCIS:CSI16:1,2011-12-05T05:00:00Z,29.4012,-89.0355,8.915,11111222 
WAVCIS,ioos:station:WAVCIS:CSI16:1,2011-12-05T06:00:00Z,29.4012,-89.0355,8.886,11111222 
WAVCIS,ioos:station:WAVCIS:CSI16:1,2011-12-05T07:00:00Z,29.4012,-89.0355,8.85,11111222 
WAVCIS,ioos:station:WAVCIS:CSI16:1,2011-12-05T08:00:00Z,29.4012,-89.0355,8.815,11111222 
WAVCIS,ioos:station:WAVCIS:CSI16:1,2011-12-05T09:00:00Z,29.4012,-89.0355,8.795,11111222 
WAVCIS,ioos:station:WAVCIS:CSI16:1,2011-12-05T10:00:00Z,29.4012,-89.0355,8.787,11111222 
WAVCIS,ioos:station:WAVCIS:CSI16:1,2011-12-05T11:00:00Z,29.4012,-89.0355,8.794,11111222 
WAVCIS,ioos:station:WAVCIS:CSI16:1,2011-12-05T12:00:00Z,29.4012,-89.0355,8.803,11111222 
WAVCIS,ioos:station:WAVCIS:CSI16:1,2011-12-05T13:00:00Z,29.4012,-89.0355,8.814,11111222 
WAVCIS,ioos:station:WAVCIS:CSI16:1,2011-12-05T14:00:00Z,29.4012,-89.0355,8.846,11111222 
WAVCIS,ioos:station:WAVCIS:CSI16:1,2011-12-05T15:00:00Z,29.4012,-89.0355,8.881,11111222 
WAVCIS,ioos:station:WAVCIS:CSI16:1,2011-12-05T16:00:00Z,29.4012,-89.0355,8.907,11111222 
WAVCIS,ioos:station:WAVCIS:CSI16:1,2011-12-05T17:00:00Z,29.4012,-89.0355,8.935,11111222 
WAVCIS,ioos:station:WAVCIS:CSI16:1,2011-12-05T18:00:00Z,29.4012,-89.0355,8.956,11111222 
WAVCIS,ioos:station:WAVCIS:CSI16:1,2011-12-05T19:00:00Z,29.4012,-89.0355,8.967,11111222 
WAVCIS,ioos:station:WAVCIS:CSI16:1,2011-12-05T20:00:00Z,29.4012,-89.0355,8.993,11111222 
WAVCIS,ioos:station:WAVCIS:CSI16:1,2011-12-05T21:00:00Z,29.4012,-89.0355,9.016,11111222 
WAVCIS,ioos:station:WAVCIS:CSI16:1,2011-12-05T22:00:00Z,29.4012,-89.0355,9.029,11111222 
WAVCIS,ioos:station:WAVCIS:CSI16:1,2011-12-05T23:00:00Z,29.4012,-89.0355,9.033,11111222 
WAVCIS,ioos:station:WAVCIS:CSI16:1,2011-12-06T00:00:00Z,29.4012,-89.0355,9.028,11111222 
WAVCIS,ioos:station:WAVCIS:CSI16:1,2011-12-06T01:00:00Z,29.4012,-89.0355,9.016,11111222 
WAVCIS,ioos:station:WAVCIS:CSI16:1,2011-12-06T02:00:00Z,29.4012,-89.0355,8.993,11111222 
WAVCIS,ioos:station:WAVCIS:CSI16:1,2011-12-06T03:00:00Z,29.4012,-89.0355,8.958,11111222 
WAVCIS,ioos:station:WAVCIS:CSI16:1,2011-12-06T04:00:00Z,29.4012,-89.0355,8.9,11111222 
WAVCIS,ioos:station:WAVCIS:CSI16:1,2011-12-06T05:00:00Z,29.4012,-89.0355,8.837,11111222 
WAVCIS,ioos:station:WAVCIS:CSI16:1,2011-12-06T06:00:00Z,29.4012,-89.0355,8.782,11111222 
WAVCIS,ioos:station:WAVCIS:CSI16:1,2011-12-06T07:00:00Z,29.4012,-89.0355,8.729,11111222 
WAVCIS,ioos:station:WAVCIS:CSI16:1,2011-12-06T08:00:00Z,29.4012,-89.0355,8.69,11111222 
WAVCIS,ioos:station:WAVCIS:CSI16:1,2011-12-06T09:00:00Z,29.4012,-89.0355,8.668,11111222 
WAVCIS,ioos:station:WAVCIS:CSI16:1,2011-12-06T10:00:00Z,29.4012,-89.0355,8.652,11111222 
WAVCIS,ioos:station:WAVCIS:CSI16:1,2011-12-06T11:00:00Z,29.4012,-89.0355,8.657,11111222 
WAVCIS,ioos:station:WAVCIS:CSI16:1,2011-12-06T12:00:00Z,29.4012,-89.0355,8.685,11111222 
WAVCIS,ioos:station:WAVCIS:CSI16:1,2011-12-06T13:00:00Z,29.4012,-89.0355,8.706,11111222 
WAVCIS,ioos:station:WAVCIS:CSI16:1,2011-12-06T14:00:00Z,29.4012,-89.0355,8.764,11111222 
WAVCIS,ioos:station:WAVCIS:CSI16:1,2011-12-06T15:00:00Z,29.4012,-89.0355,8.799,11111222 
WAVCIS,ioos:station:WAVCIS:CSI16:1,2011-12-06T16:00:00Z,29.4012,-89.0355,8.831,11111222 
WAVCIS,ioos:station:WAVCIS:CSI16:1,2011-12-06T17:00:00Z,29.4012,-89.0355,8.871,11111222 
WAVCIS,ioos:station:WAVCIS:CSI16:1,2011-12-06T18:00:00Z,29.4012,-89.0355,8.906,11111222 
WAVCIS,ioos:station:WAVCIS:CSI16:1,2011-12-06T19:00:00Z,29.4012,-89.0355,8.951,11111222 
WAVCIS,ioos:station:WAVCIS:CSI16:1,2011-12-06T20:00:00Z,29.4012,-89.0355,9.0,11111222 
WAVCIS,ioos:station:WAVCIS:CSI16:1,2011-12-06T21:00:00Z,29.4012,-89.0355,9.046,11111222 
WAVCIS,ioos:station:WAVCIS:CSI16:1,2011-12-06T22:00:00Z,29.4012,-89.0355,9.069,11111222 
WAVCIS,ioos:station:WAVCIS:CSI16:1,2011-12-06T23:00:00Z,29.4012,-89.0355,9.071,11111222 
WAVCIS,ioos:station:WAVCIS:CSI16:1,2011-12-07T00:00:00Z,29.4012,-89.0355,9.068,11111222 
WAVCIS,ioos:station:WAVCIS:CSI16:1,2011-12-07T01:00:00Z,29.4012,-89.0355,9.065,11111222 
WAVCIS,ioos:station:WAVCIS:CSI16:1,2011-12-07T02:00:00Z,29.4012,-89.0355,9.041,11111222 
WAVCIS,ioos:station:WAVCIS:CSI16:1,2011-12-07T03:00:00Z,29.4012,-89.0355,9.001,11111222 
WAVCIS,ioos:station:WAVCIS:CSI16:1,2011-12-07T04:00:00Z,29.4012,-89.0355,8.936,11111222 
WAVCIS,ioos:station:WAVCIS:CSI16:1,2011-12-07T05:00:00Z,29.4012,-89.0355,8.84,11111222 
WAVCIS,ioos:station:WAVCIS:CSI16:1,2011-12-07T06:00:00Z,29.4012,-89.0355,8.73,11111222 
WAVCIS,ioos:station:WAVCIS:CSI16:1,2011-12-07T07:00:00Z,29.4012,-89.0355,8.645,11111222 
WAVCIS,ioos:station:WAVCIS:CSI16:1,2011-12-07T08:00:00Z,29.4012,-89.0355,8.59,11111222 
WAVCIS,ioos:station:WAVCIS:CSI16:1,2011-12-07T09:00:00Z,29.4012,-89.0355,8.559,11111222 
WAVCIS,ioos:station:WAVCIS:CSI16:1,2011-12-07T10:00:00Z,29.4012,-89.0355,8.529,11111222 
WAVCIS,ioos:station:WAVCIS:CSI16:1,2011-12-07T11:00:00Z,29.4012,-89.0355,8.498,11111222 
WAVCIS,ioos:station:WAVCIS:CSI16:1,2011-12-07T12:00:00Z,29.4012,-89.0355,8.509,11111222 
WAVCIS,ioos:station:WAVCIS:CSI16:1,2011-12-07T13:00:00Z,29.4012,-89.0355,8.527,11111222 
WAVCIS,ioos:station:WAVCIS:CSI16:1,2011-12-07T14:00:00Z,29.4012,-89.0355,8.543,11111222 
WAVCIS,ioos:station:WAVCIS:CSI16:1,2011-12-07T15:00:00Z,29.4012,-89.0355,8.583,11111222 
WAVCIS,ioos:station:WAVCIS:CSI16:1,2011-12-07T16:00:00Z,29.4012,-89.0355,8.602,11111222 
WAVCIS,ioos:station:WAVCIS:CSI16:1,2011-12-07T17:00:00Z,29.4012,-89.0355,8.613,11111222 
WAVCIS,ioos:station:WAVCIS:CSI16:1,2011-12-07T18:00:00Z,29.4012,-89.0355,8.648,11111222 
WAVCIS,ioos:station:WAVCIS:CSI16:1,2011-12-07T19:00:00Z,29.4012,-89.0355,8.721,11111222 
WAVCIS,ioos:station:WAVCIS:CSI16:1,2011-12-07T20:00:00Z,29.4012,-89.0355,8.765,11111222 
WAVCIS,ioos:station:WAVCIS:CSI16:1,2011-12-07T21:00:00Z,29.4012,-89.0355,8.818,11111222 
WAVCIS,ioos:station:WAVCIS:CSI16:1,2011-12-07T22:00:00Z,29.4012,-89.0355,8.869,11111222 
WAVCIS,ioos:station:WAVCIS:CSI16:1,2011-12-07T23:00:00Z,29.4012,-89.0355,8.913,11111222 
WAVCIS,ioos:station:WAVCIS:CSI16:1,2011-12-08T00:00:00Z,29.4012,-89.0355,8.943,11111222 
WAVCIS,ioos:station:WAVCIS:CSI16:1,2011-12-08T01:00:00Z,29.4012,-89.0355,8.943,11111222 
WAVCIS,ioos:station:WAVCIS:CSI16:1,2011-12-08T02:00:00Z,29.4012,-89.0355,8.928,11111222 
WAVCIS,ioos:station:WAVCIS:CSI16:1,2011-12-08T03:00:00Z,29.4012,-89.0355,8.885,11111222 
WAVCIS,ioos:station:WAVCIS:CSI16:1,2011-12-08T04:00:00Z,29.4012,-89.0355,8.824,11111222 
WAVCIS,ioos:station:WAVCIS:CSI16:1,2011-12-08T05:00:00Z,29.4012,-89.0355,8.75,11111222 
WAVCIS,ioos:station:WAVCIS:CSI16:1,2011-12-08T06:00:00Z,29.4012,-89.0355,8.667,11111222 
WAVCIS,ioos:station:WAVCIS:CSI16:1,2011-12-08T07:00:00Z,29.4012,-89.0355,8.601,11111222 
WAVCIS,ioos:station:WAVCIS:CSI16:1,2011-12-08T08:00:00Z,29.4012,-89.0355,8.551,11111222 
WAVCIS,ioos:station:WAVCIS:CSI16:1,2011-12-08T09:00:00Z,29.4012,-89.0355,8.508,11111222 
WAVCIS,ioos:station:WAVCIS:CSI16:1,2011-12-08T10:00:00Z,29.4012,-89.0355,8.509,11111222 
WAVCIS,ioos:station:WAVCIS:CSI16:1,2011-12-08T11:00:00Z,29.4012,-89.0355,8.506,11111222 
WAVCIS,ioos:station:WAVCIS:CSI16:1,2011-12-08T12:00:00Z,29.4012,-89.0355,8.515,11111222 
WAVCIS,ioos:station:WAVCIS:CSI16:1,2011-12-08T13:00:00Z,29.4012,-89.0355,8.533,11111222 
WAVCIS,ioos:station:WAVCIS:CSI16:1,2011-12-08T14:00:00Z,29.4012,-89.0355,8.571,11111222 
WAVCIS,ioos:station:WAVCIS:CSI16:1,2011-12-08T15:00:00Z,29.4012,-89.0355,8.612,11111222 
WAVCIS,ioos:station:WAVCIS:CSI16:1,2011-12-08T16:00:00Z,29.4012,-89.0355,8.639,11111222 
WAVCIS,ioos:station:WAVCIS:CSI16:1,2011-12-08T17:00:00Z,29.4012,-89.0355,8.681,11111222 
WAVCIS,ioos:station:WAVCIS:CSI16:1,2011-12-08T18:00:00Z,29.4012,-89.0355,8.715,11111222 
WAVCIS,ioos:station:WAVCIS:CSI16:1,2011-12-08T19:00:00Z,29.4012,-89.0355,8.739,11111222 
WAVCIS,ioos:station:WAVCIS:CSI16:1,2011-12-08T20:00:00Z,29.4012,-89.0355,8.78,11111222 
WAVCIS,ioos:station:WAVCIS:CSI16:1,2011-12-08T21:00:00Z,29.4012,-89.0355,8.84,11111222 
WAVCIS,ioos:station:WAVCIS:CSI16:1,2011-12-08T22:00:00Z,29.4012,-89.0355,8.887,11111222 
WAVCIS,ioos:station:WAVCIS:CSI16:1,2011-12-08T23:00:00Z,29.4012,-89.0355,8.93,11111222 
WAVCIS,ioos:station:WAVCIS:CSI16:1,2011-12-09T00:00:00Z,29.4012,-89.0355,8.978,11111222 
WAVCIS,ioos:station:WAVCIS:CSI16:1,2011-12-09T01:00:00Z,29.4012,-89.0355,8.99,11111222 
WAVCIS,ioos:station:WAVCIS:CSI16:1,2011-12-09T02:00:00Z,29.4012,-89.0355,8.986,11111222 
WAVCIS,ioos:station:WAVCIS:CSI16:1,2011-12-09T03:00:00Z,29.4012,-89.0355,8.947,11111222 
WAVCIS,ioos:station:WAVCIS:CSI16:1,2011-12-09T04:00:00Z,29.4012,-89.0355,8.896,11111222 
WAVCIS,ioos:station:WAVCIS:CSI16:1,2011-12-09T05:00:00Z,29.4012,-89.0355,8.817,11111222 
WAVCIS,ioos:station:WAVCIS:CSI16:1,2011-12-09T06:00:00Z,29.4012,-89.0355,8.707,11111222 
WAVCIS,ioos:station:WAVCIS:CSI16:1,2011-12-09T07:00:00Z,29.4012,-89.0355,8.619,11111222 
WAVCIS,ioos:station:WAVCIS:CSI16:1,2011-12-09T08:00:00Z,29.4012,-89.0355,8.527,11111222 
WAVCIS,ioos:station:WAVCIS:CSI16:1,2011-12-09T09:00:00Z,29.4012,-89.0355,8.444,11111222 
WAVCIS,ioos:station:WAVCIS:CSI16:1,2011-12-09T10:00:00Z,29.4012,-89.0355,8.414,11111222 
WAVCIS,ioos:station:WAVCIS:CSI16:1,2011-12-09T11:00:00Z,29.4012,-89.0355,8.391,11111222 
WAVCIS,ioos:station:WAVCIS:CSI16:1,2011-12-09T12:00:00Z,29.4012,-89.0355,8.398,11111222 
WAVCIS,ioos:station:WAVCIS:CSI16:1,2011-12-09T13:00:00Z,29.4012,-89.0355,8.432,11111222 
WAVCIS,ioos:station:WAVCIS:CSI16:1,2011-12-09T14:00:00Z,29.4012,-89.0355,8.465,11111222 
WAVCIS,ioos:station:WAVCIS:CSI16:1,2011-12-09T15:00:00Z,29.4012,-89.0355,8.512,11111222 
WAVCIS,ioos:station:WAVCIS:CSI16:1,2011-12-09T16:00:00Z,29.4012,-89.0355,8.56,11111222 
WAVCIS,ioos:station:WAVCIS:CSI16:1,2011-12-09T17:00:00Z,29.4012,-89.0355,8.618,11111222 
WAVCIS,ioos:station:WAVCIS:CSI16:1,2011-12-09T18:00:00Z,29.4012,-89.0355,8.663,11111222 
WAVCIS,ioos:station:WAVCIS:CSI16:1,2011-12-09T19:00:00Z,29.4012,-89.0355,8.71,11111222 
WAVCIS,ioos:station:WAVCIS:CSI16:1,2011-12-09T20:00:00Z,29.4012,-89.0355,8.777,11111222 
WAVCIS,ioos:station:WAVCIS:CSI16:1,2011-12-09T21:00:00Z,29.4012,-89.0355,8.835,11111222 
WAVCIS,ioos:station:WAVCIS:CSI16:1,2011-12-09T22:00:00Z,29.4012,-89.0355,8.882,11111222 
WAVCIS,ioos:station:WAVCIS:CSI16:1,2011-12-09T23:00:00Z,29.4012,-89.0355,8.936,11111222 
WAVCIS,ioos:station:WAVCIS:CSI16:1,2011-12-10T00:00:00Z,29.4012,-89.0355,8.978,11111222 
WAVCIS,ioos:station:WAVCIS:CSI16:1,2011-12-10T01:00:00Z,29.4012,-89.0355,9.013,11111222 
WAVCIS,ioos:station:WAVCIS:CSI16:1,2011-12-10T02:00:00Z,29.4012,-89.0355,9.015,11111222 
WAVCIS,ioos:station:WAVCIS:CSI16:1,2011-12-10T03:00:00Z,29.4012,-89.0355,8.991,11111222 
WAVCIS,ioos:station:WAVCIS:CSI16:1,2011-12-10T04:00:00Z,29.4012,-89.0355,8.938,11111222 
WAVCIS,ioos:station:WAVCIS:CSI16:1,2011-12-10T05:00:00Z,29.4012,-89.0355,8.879,11111222 
WAVCIS,ioos:station:WAVCIS:CSI16:1,2011-12-10T06:00:00Z,29.4012,-89.0355,8.778,11111222 
WAVCIS,ioos:station:WAVCIS:CSI16:1,2011-12-10T07:00:00Z,29.4012,-89.0355,8.655,11111222 
WAVCIS,ioos:station:WAVCIS:CSI16:1,2011-12-10T08:00:00Z,29.4012,-89.0355,8.552,11111222 
WAVCIS,ioos:station:WAVCIS:CSI16:1,2011-12-10T09:00:00Z,29.4012,-89.0355,8.518,11111222 
WAVCIS,ioos:station:WAVCIS:CSI16:1,2011-12-10T10:00:00Z,29.4012,-89.0355,8.485,11111222 
WAVCIS,ioos:station:WAVCIS:CSI16:1,2011-12-10T11:00:00Z,29.4012,-89.0355,8.463,11111222 
WAVCIS,ioos:station:WAVCIS:CSI16:1,2011-12-10T12:00:00Z,29.4012,-89.0355,8.46,11111222 
WAVCIS,ioos:station:WAVCIS:CSI16:1,2011-12-10T13:00:00Z,29.4012,-89.0355,8.495,11111222 
WAVCIS,ioos:station:WAVCIS:CSI16:1,2011-12-10T14:00:00Z,29.4012,-89.0355,8.54,11111222 
WAVCIS,ioos:station:WAVCIS:CSI16:1,2011-12-10T15:00:00Z,29.4012,-89.0355,8.585,11111222 
WAVCIS,ioos:station:WAVCIS:CSI16:1,2011-12-10T16:00:00Z,29.4012,-89.0355,8.635,11111222 
WAVCIS,ioos:station:WAVCIS:CSI16:1,2011-12-10T17:00:00Z,29.4012,-89.0355,8.669,11111222 
WAVCIS,ioos:station:WAVCIS:CSI16:1,2011-12-10T18:00:00Z,29.4012,-89.0355,8.75,11111222 
WAVCIS,ioos:station:WAVCIS:CSI16:1,2011-12-10T19:00:00Z,29.4012,-89.0355,8.784,11111222 
WAVCIS,ioos:station:WAVCIS:CSI16:1,2011-12-10T20:00:00Z,29.4012,-89.0355,8.824,11111222 
WAVCIS,ioos:station:WAVCIS:CSI16:1,2011-12-10T21:00:00Z,29.4012,-89.0355,8.887,11111222 
WAVCIS,ioos:station:WAVCIS:CSI16:1,2011-12-10T22:00:00Z,29.4012,-89.0355,8.941,11111222 
WAVCIS,ioos:station:WAVCIS:CSI16:1,2011-12-10T23:00:00Z,29.4012,-89.0355,8.971,11111222 
WAVCIS,ioos:station:WAVCIS:CSI16:1,2011-12-11T00:00:00Z,29.4012,-89.0355,9.053,11111222 
WAVCIS,ioos:station:WAVCIS:CSI16:1,2011-12-11T01:00:00Z,29.4012,-89.0355,9.064,11111222 
WAVCIS,ioos:station:WAVCIS:CSI16:1,2011-12-11T02:00:00Z,29.4012,-89.0355,9.097,11111222 
WAVCIS,ioos:station:WAVCIS:CSI16:1,2011-12-11T03:00:00Z,29.4012,-89.0355,9.078,11111222 
WAVCIS,ioos:station:WAVCIS:CSI16:1,2011-12-11T04:00:00Z,29.4012,-89.0355,9.057,11111222 
WAVCIS,ioos:station:WAVCIS:CSI16:1,2011-12-11T05:00:00Z,29.4012,-89.0355,8.998,11111222 
WAVCIS,ioos:station:WAVCIS:CSI16:1,2011-12-11T06:00:00Z,29.4012,-89.0355,8.919,11111222 
WAVCIS,ioos:station:WAVCIS:CSI16:1,2011-12-11T07:00:00Z,29.4012,-89.0355,8.805,11111222 
WAVCIS,ioos:station:WAVCIS:CSI16:1,2011-12-11T08:00:00Z,29.4012,-89.0355,8.715,11111222 
WAVCIS,ioos:station:WAVCIS:CSI16:1,2011-12-11T09:00:00Z,29.4012,-89.0355,8.616,11111222 
WAVCIS,ioos:station:WAVCIS:CSI16:1,2011-12-11T10:00:00Z,29.4012,-89.0355,8.555,11111222 
WAVCIS,ioos:station:WAVCIS:CSI16:1,2011-12-11T11:00:00Z,29.4012,-89.0355,8.508,11111222 
WAVCIS,ioos:station:WAVCIS:CSI16:1,2011-12-11T12:00:00Z,29.4012,-89.0355,8.485,11111222 
WAVCIS,ioos:station:WAVCIS:CSI16:1,2011-12-11T13:00:00Z,29.4012,-89.0355,8.483,11111222 
WAVCIS,ioos:station:WAVCIS:CSI16:1,2011-12-11T14:00:00Z,29.4012,-89.0355,8.509,11111222 
WAVCIS,ioos:station:WAVCIS:CSI16:1,2011-12-11T15:00:00Z,29.4012,-89.0355,8.51,11111222 
WAVCIS,ioos:station:WAVCIS:CSI16:1,2011-12-11T16:00:00Z,29.4012,-89.0355,8.597,11111222 
WAVCIS,ioos:station:WAVCIS:CSI16:1,2011-12-11T17:00:00Z,29.4012,-89.0355,8.596,11111222 
WAVCIS,ioos:station:WAVCIS:CSI16:1,2011-12-11T18:00:00Z,29.4012,-89.0355,8.646,11111222 
WAVCIS,ioos:station:WAVCIS:CSI16:1,2011-12-11T19:00:00Z,29.4012,-89.0355,8.678,11111222 
WAVCIS,ioos:station:WAVCIS:CSI16:1,2011-12-11T20:00:00Z,29.4012,-89.0355,8.76,11111222 
WAVCIS,ioos:station:WAVCIS:CSI16:1,2011-12-11T21:00:00Z,29.4012,-89.0355,8.776,11111222 
WAVCIS,ioos:station:WAVCIS:CSI16:1,2011-12-11T22:00:00Z,29.4012,-89.0355,8.862,11111222 
WAVCIS,ioos:station:WAVCIS:CSI16:1,2011-12-11T23:00:00Z,29.4012,-89.0355,8.902,11111222 
WAVCIS,ioos:station:WAVCIS:CSI16:1,2011-12-12T00:00:00Z,29.4012,-89.0355,8.959,11111222 
WAVCIS,ioos:station:WAVCIS:CSI16:1,2011-12-12T01:00:00Z,29.4012,-89.0355,9.004,11111222 
WAVCIS,ioos:station:WAVCIS:CSI16:1,2011-12-12T02:00:00Z,29.4012,-89.0355,9.073,11111222 
WAVCIS,ioos:station:WAVCIS:CSI16:1,2011-12-12T03:00:00Z,29.4012,-89.0355,9.066,11111222 
WAVCIS,ioos:station:WAVCIS:CSI16:1,2011-12-12T04:00:00Z,29.4012,-89.0355,9.054,11111222 